Flag for U.S.A. Weather past 2 weeks in Los Angeles, California, U.S.A.

Now
50 °F

Overcast.


Feels Like: 50 °F
Forecast: 47 / 60 °F
Wind: No wind

Location: Los Angeles / USC Campus Downtown

Current Time: Dec 18, 2014 at 6:50:54 AM

Latest Report: Dec 18, 2014 at 5:47 AM


Visibility: 10 mi

Pressure: 30.13 "Hg

Humidity: 80%

Dew point: 44 °F

Location of Los AngelesLocation

Historic Weather in Los Angeles — Graph

°F

Los Angeles temperature yesterday

Maximum temperature yesterday: 64 °F (at 12:47 PM)
Minimum temperature yesterday: 51 °F (at 11:47 PM)
Average temperature yesterday: 57 °F

Past Weeks' High & Low Weather Summary

 TemperatureHumidityPressure
High78 °F (Dec 8, 1:47 PM)97% (Dec 4, 2:47 AM)30.20 "Hg (Dec 4, 2:47 AM)
Low47 °F (Dec 14, 6:47 AM)32% (Dec 8, 1:47 PM)29.82 "Hg (Dec 12, 2:47 AM)
Average60 °F73%30.02 "Hg
* Reported Dec 3 5:47 AM — Dec 18 5:47 AM, Los Angeles, Weather by CustomWeather, © 2014

Note: Actual official high and low records may vary slightly from our data, if they occured in-between our weather recording intervals... More about our weather records

Advertising

Los Angeles weather history for previous 24 hours

 ConditionsComfort  
Time TempWeatherWind HumidityBarometerVisibility
5:47 AM
Dec 18
50 °FOvercast.No wind80%30.13 "Hg10 mi
4:47 AM48 °FClear.No wind86%30.12 "Hg10 mi
3:47 AM49 °FClear.No wind84%30.11 "Hg10 mi
2:47 AM50 °FOvercast.No wind83%30.11 "Hg10 mi
1:47 AM50 °FClear.No wind83%30.11 "Hg10 mi
12:47 AM54 °FClear.No wind69%30.10 "Hg10 mi
11:47 PM
Dec 17
51 °FClear.No wind80%30.11 "Hg10 mi
10:47 PM52 °FClear.No wind80%30.11 "Hg10 mi
9:47 PM53 °FClear.No wind74%30.10 "Hg10 mi
8:47 PM54 °FClear.No wind72%30.09 "Hg10 mi
7:47 PM56 °FClear.No wind67%30.08 "Hg10 mi
6:47 PM59 °FPassing clouds.No wind56%30.06 "Hg10 mi
5:47 PM59 °FOvercast.No wind56%30.06 "Hg10 mi
4:47 PM60 °FPassing clouds.No wind56%30.06 "Hg10 mi
3:47 PM61 °FSunny.No wind56%30.05 "Hg10 mi
2:47 PM61 °FSunny.6 mph56%30.04 "Hg10 mi
1:47 PM63 °FSunny.3 mph54%30.04 "Hg10 mi
12:47 PM64 °FSunny.3 mph52%30.04 "Hg10 mi
11:47 AM60 °FPassing clouds.No wind65%30.04 "Hg10 mi
10:47 AM60 °FPassing clouds.No wind65%30.06 "Hg10 mi
9:59 AM59 °FPartly sunny.3 mph69%30.07 "Hg10 mi
9:47 AM59 °FPassing clouds.3 mph69%30.06 "Hg10 mi
8:47 AM57 °FSunny.3 mph74%30.04 "Hg10 mi
7:47 AM54 °FBroken clouds.No wind83%30.01 "Hg10 mi
6:47 AM53 °FPassing clouds.No wind89%29.98 "Hg10 mi
Weather by CustomWeather, © 2014

See weather overviewHow to use our weather pages